TimeMST,TemperatureF,Dew PointF,Humidity,Sea Level PressureIn,VisibilityMPH,Wind Direction,Wind SpeedMPH,Gust SpeedMPH,PrecipitationIn,Events,Conditions,WindDirDegrees,DateUTC
12:53 AM,30.0,-2.9,24,30.13,10.0,South,5.8,-,N/A,,Scattered Clouds,180,2013-01-23 07:53:00
1:53 AM,37.0,-8.0,14,30.11,10.0,South,3.5,-,N/A,,Scattered Clouds,180,2013-01-23 08:53:00
2:53 AM,28.0,-4.0,25,30.14,10.0,SE,6.9,-,N/A,,Clear,140,2013-01-23 09:53:00
3:53 AM,37.9,-9.0,13,30.09,10.0,South,6.9,-,N/A,,Scattered Clouds,180,2013-01-23 10:53:00
4:53 AM,39.0,-8.0,13,30.12,10.0,South,8.1,-,N/A,,Partly Cloudy,170,2013-01-23 11:53:00
5:53 AM,37.0,-4.0,17,30.14,10.0,SSE,11.5,-,N/A,,Partly Cloudy,160,2013-01-23 12:53:00
6:53 AM,36.0,-2.0,20,30.18,10.0,SSE,9.2,-,N/A,,Mostly Cloudy,150,2013-01-23 13:53:00
7:53 AM,41.0,-5.1,14,30.18,10.0,South,5.8,-,N/A,,Mostly Cloudy,190,2013-01-23 14:53:00
8:53 AM,45.0,-2.9,14,30.19,10.0,South,6.9,-,N/A,,Mostly Cloudy,180,2013-01-23 15:53:00
9:53 AM,52.0,-7.1,9,30.18,10.0,SSW,13.8,-,N/A,,Mostly Cloudy,210,2013-01-23 16:53:00
10:53 AM,52.0,-5.1,9,30.19,10.0,SSW,3.5,-,N/A,,Mostly Cloudy,210,2013-01-23 17:53:00
11:53 AM,54.0,-2.9,10,30.12,10.0,South,6.9,-,N/A,,Mostly Cloudy,180,2013-01-23 18:53:00
12:53 PM,57.9,-7.1,7,30.12,10.0,SW,6.9,-,N/A,,Mostly Cloudy,220,2013-01-23 19:53:00
1:53 PM,60.1,-5.1,7,30.08,10.0,Calm,Calm,-,N/A,,Mostly Cloudy,0,2013-01-23 20:53:00
2:53 PM,57.9,3.9,11,30.11,10.0,ESE,6.9,-,N/A,,Mostly Cloudy,120,2013-01-23 21:53:00
3:53 PM,54.0,5.0,14,30.08,10.0,NNW,3.5,-,N/A,,Mostly Cloudy,340,2013-01-23 22:53:00
4:53 PM,53.1,3.0,13,30.09,10.0,NNE,3.5,-,N/A,,Mostly Cloudy,30,2013-01-23 23:53:00
5:53 PM,50.0,6.1,17,30.13,10.0,SE,8.1,-,N/A,,Mostly Cloudy,140,2013-01-24 00:53:00
6:53 PM,48.9,6.1,18,30.14,10.0,SSE,10.4,-,N/A,,Mostly Cloudy,150,2013-01-24 01:53:00
7:53 PM,43.0,8.1,24,30.14,10.0,SSW,8.1,-,N/A,,Mostly Cloudy,210,2013-01-24 02:53:00
8:53 PM,41.0,8.1,26,30.14,10.0,West,3.5,-,N/A,,Mostly Cloudy,270,2013-01-24 03:53:00
9:53 PM,41.0,8.1,26,30.11,10.0,SSW,4.6,-,N/A,,Mostly Cloudy,210,2013-01-24 04:53:00
10:53 PM,39.9,7.0,26,30.11,10.0,South,6.9,-,N/A,,Mostly Cloudy,170,2013-01-24 05:53:00
11:53 PM,41.0,6.1,24,30.08,10.0,South,5.8,-,N/A,,Mostly Cloudy,170,2013-01-24 06:53:00